Finished auctions

  Title End date
IMG_3369.JPG 2152: Dalbo Maxi Roll 830 with planer. 30-09-2020 17:00:00
IMG_5516.JPG 1818: Bucket for Excavator with CW55S hitch. 25-09-2020 10:00:00
IMG_0414.JPG 1175: New Holland E 9 SR mini excavator with new engine. 25-09-2020 10:00:00
DSC04635.JPG 1683: Kuhn 3 meter deck sprayer. 24-09-2020 08:07:00
DSC04650.JPG 1682: TP 175 Mobile wood chipper. 24-09-2020 07:57:58
DSC04922.JPG 1707: Vogel & Noot 7-tooth depth cultivator. -Demo 23-09-2020 16:07:17
DSC04916.JPG 1706: Breviglieri tractor cultivator -New 23-09-2020 15:56:00
DSC04895.JPG 1705: Breviglieri tractor cultivator unused machine 23-09-2020 15:47:00
IMG_8720.JPG 1119: Genie S-60 boom lift 4WD 23-09-2020 14:00:00
IMG_4234.JPEG 2862: Crown Big Pack 12130 big baler 23-09-2020 11:45:00
IMG_5033.JPEG 2842: Fendt 9470X Hybrid 23-09-2020 11:30:00
DSC04760.JPG 1692: New Balfor wood chipper for tractor. 23-09-2020 10:22:00
IMG_0448.JPG 1176: Toyota Landcruiser VX 100 4.2 D Aut passenger car 23-09-2020 08:50:00
IMG_0381.JPG 1174: Bredal A2 Auto-W-control fertilizer spreader. 22-09-2020 14:00:00
IMG_20200904_123315.jpg 1167: Trimble Surveying Equipment 22-09-2020 07:10:00
IMG_0220.JPG 1169: Amazone UX 3200 with 24 meter boom 21-09-2020 14:00:00
IMG_2895.JPG 2131: Humbaur 3500 kg trailer 19-09-2020 17:00:00
IMG_3044.JPG 2136: Williams trailer 3500 kg 19-09-2020 17:00:00
IMG_3074.JPG 2137: Williams trailer 3500 kg 19-09-2020 17:00:00
3586-62e7ea3180783f7d89aeaac2dbdc5661-2196941-1vb.jpg 1164: Fasteholt RB 87 round bale collector and stacker. 18-09-2020 14:00:00
IMG_0113.JPG 1165: Conveyor for potatoes 18-09-2020 14:00:00
IMG_2328.JPG 1994: Hydrema 806 Backhoe loader 17-09-2020 17:05:22
IMG_2419.JPG 1995: Ammann AVH 6020 Rammer 17-09-2020 17:04:18
IMG_2443.JPG 1996: Sweeper Bucher CityCat 2000 17-09-2020 17:00:00
IMG_2521.JPG 1998: Optimas H88 concrete paving machine 17-09-2020 17:00:00
IMG_2575.JPG 1999: Optimas HYG 6 Tile pliers. 17-09-2020 17:00:00
IMG_2748.JPG 3013: Low Loader - 17.5 tons 17-09-2020 17:00:00
IMG_9335.JPG 2124: Terex TC 19 mini excavator with few hours. 17-09-2020 14:00:00
IMG_9963.JPG 2599: Case Puma 155 16-09-2020 14:19:45
IMG_9073.JPG 1128: Hardi TA 3500 Field sprayer 20 Meter 16-09-2020 14:00:00
IMG_0069.JPG 2597: Bauer Rainstar E41 16-09-2020 13:48:00
IMG_8287.JPG 2103: Bobcat E16 Excavator 16-09-2020 11:45:00
Hestestald.jpg 2588: Modular horse stable 16-09-2020 10:46:00
IMG_9118.JPG 1129: Dalbo Levelflex 2000 front ground packer. 15-09-2020 14:00:00
IMG_9719.JPG 1153: Caterpillar F 35 Forklifts 15-09-2020 14:00:00
IMG_9750.JPG 1154: Grimme HL 750 RBR Matador potato harvester. 14-09-2020 14:00:00
IMG_9674.JPG 1151: Polaris Sportsman 500 4x4 ATV 14-09-2020 14:00:00
IMG_9701.JPG 1152: Muratori stone laying cutter. 14-09-2020 10:00:00
IMG_9633.JPG 1149: Trejon profi 700 TR / EH saw /wood splitting machine. 14-09-2020 08:24:00
IMG_5366.JPG 1813: Mower header 180 cm for Ferris 5100 - demo model 11-09-2020 20:00:00
IMG_1481.JPG 1983: Hydrema 906 backhoe loader 09-09-2020 20:36:34
IMG_8153.JPG 1901: Kramer Allrad 612 SLX loader 09-09-2020 20:00:00
IMG_1344.JPG 1978: Concrete hammer Heinz HZ 452 09-09-2020 20:00:00
IMG_1360.JPG 1979: Kaiser M 20 Mobile Compressor. 09-09-2020 20:00:00
IMG_1386.JPG 1980: Grab Mustang GRP 250 09-09-2020 20:00:00
IMG_1432.JPG 1982: Ford 4000 tractor 09-09-2020 20:00:00
IMG_1581.JPG 1984: Compressor Mobile Rotaib MDVN 52 AP 09-09-2020 20:00:00
IMG_1335.JPG 1977: Concrete hammer Heinz HZ 252 09-09-2020 20:00:00
IMG_7258.JPEG 2589: Case IH Maxxum 110 with Stoll LRZ150 front loader 09-09-2020 12:29:00
IMG_6398.JPEG 2579: Powerlink WPS60S 09-09-2020 11:45:00
IMG_7391.JPEG 1340: Hoegild feeder 2/28 09-09-2020 11:08:00
IMG_3532.jpg 2502: Ransomes HR6010 lawn mower 09-09-2020 11:00:00
DSC09343 - Kopi.JPG LP9542: Snow plow for Truck 08-09-2020 20:00:00
Garage.jpg 1271: 6KW Solar Panels System 08-09-2020 20:00:00
shutterstock_1056264089.jpg 1273: 20KW Solar Panel system 08-09-2020 20:00:00
IMG_2217.JPG 1991: Egholm 2100 with rotary mower. 08-09-2020 17:00:00
IMG_2268.JPG 1993: Toro Z Master Proff 7000 Mower 08-09-2020 08:54:00
IMG_5303.JPEG 2534: Case IH 742 Farmlift 04-09-2020 20:00:00
IMG_2165.JPG 1990: Agrolux MRT 41075 AX reversible plow 04-09-2020 13:00:00
IMG_8404.JPG 1113: Volvo 4400 wheel loader. 04-09-2020 10:00:00
IMG_8807.JPG 0131: Verti Drain VD 7117 Turf Machinery 03-09-2020 20:03:39
IMG_3603.JPG 1449: Samson CM 6 meter Black soil incorporator 03-09-2020 14:00:00
IMG_6763.JPG 2052: Fiona Seedcom XR seed drill set 03-09-2020 14:00:00
IMG_2106.JPG 1989: Toro Groundsmaster 4000 lawn mower 03-09-2020 13:55:00
IMG_5094.JPG 1807: Egholm 2200 with Rotor mower 02-09-2020 20:00:00
IMG_0410.JPG 1962: John Deere 1435 with rotary mower 02-09-2020 20:00:00
IMG_0527.JPG 1965: Toro 3280 D mower 02-09-2020 20:00:00
IMG_7223.JPEG 2595: Kärcher 10 / 20-4 HDS hot water purifier 02-09-2020 13:27:00
IMG_4817.JPEG 2870: Zetor Proxima Power 120 with HE-VA front lift 02-09-2020 12:00:00
IMG_7168.JPEG 2591: Egholm 2100 II with attachments 02-09-2020 11:50:00
IMG_7109.JPEG 2590: Egholm Park Ranger 2150 with equipment 02-09-2020 11:45:00
IMG_3620.jpg 2506: Kverneland PL 100-8 reversing plow 02-09-2020 11:30:00
IMG_3584.jpg 2504: HE-VA soil packs with hydraulic crossboard 02-09-2020 11:20:00
IMG_5157.JPEG 2829: Amazon ED 602-K 02-09-2020 11:10:00
IMG_4769.JPEG 2869: Kuhn GF 10802 T digidrive 02-09-2020 11:00:00
Garage.jpg 1272: 10KW Solar Panel System 01-09-2020 20:00:00
IMG_4047.JPG 1777: Rotary mower GMR 115 cm 01-09-2020 20:00:00
IMG_4066.JPG 1778: Mower head GMR FR 1300 LHE 01-09-2020 20:00:00
IMG_8313.JPG 1903: Jacobsen Fairway 305 mower 28-08-2020 20:00:00
IMG_3120.JPG 1278: Gregoire-Besson RWY8 5 Furrrow Reversible plough 28-08-2020 10:12:36
IMG_4992.JPG 1805: Toro 6500 D 5 joint cylinder mower. 27-08-2020 20:00:00
IMG_7531.JPG 2038: Dynamic 3000 ultrasonic welder 27-08-2020 20:00:00
IMG_0160.JPG LP1623: Multione 3 wheel mini loader. 27-08-2020 14:00:00
IMG_9339.JPG 2125: Takeuchi TB 225 mini excavator with power tilt. 27-08-2020 14:00:00
IMG_7548.JPG 2084: Reinhardt technique grout mixer 26-08-2020 20:00:00
Per buhl og Egebjerg 060.JPG LP/4554: Kuhn Vari-master 9 furrow 26-08-2020 14:00:00
IMG_8447.JPG 1114: Hydrema 910 dumper 26-08-2020 14:00:00
IMG_3511.JPG 2501: Christmas tree root remover 26-08-2020 13:20:00
DSC03805.JPG 1636: Kuhn EUV 273 EUROMIX In feed mixer 25-08-2020 20:05:44
DSC03916.JPG 1643: FIORI skid steer loader. 25-08-2020 20:02:27
DSC03847.JPG 1639: Kuhn Vari-Leader 8 furet reversible plow. 25-08-2020 20:00:00
DSC03905.JPG 1640: Kuhn HR 4003 rotary seed drill set. 25-08-2020 20:00:00
egebjerg smedie 28-10-2019 065.JPG 4630: Dalbo Maxi Roll 830 demo drum 25-08-2020 14:00:00
IMG_4631.JPG 2750: Assentoft Pom S 7500 suction blower 24-08-2020 20:00:00
egebjerg smedie 28-10-2019 105.JPG LP/4631: Horsch Joker 8 RT discharve 24-08-2020 20:00:00
4c078a7c-00b9-4dd8-be4d-5884a0f934f5.jpg 1123: Väderstad Rapid 400 C Super Seed Drill 24-08-2020 14:10:06
IMG_9521.JPG 1312: Egedal bed lifter 24-08-2020 14:00:00
IMG_4975.JPG 2765: Volvo BM 350 Boxer 24-08-2020 14:00:00
IMG_9136.JPG 1130: Yamaha 420 ATV 4WD 24-08-2020 14:00:00
IMG_9170.JPG 1131: Ifor Williams Tip Trailer 3500 kg 24-08-2020 10:00:00
-666740995788535106.jpg 2883: 8T insulated heatet outdoor tank 23-08-2020 14:00:00
IMG_8920.JPG 1124: Cat D6R LGP Series 2 dozer 22-08-2020 20:00:00
IMG_5055.JPG 1806: Toro Green Master 3250 D 21-08-2020 20:00:00
IMG_0620.JPG 1966: Dronningborg Jumbo 8900 combine harvester. 21-08-2020 20:00:00
IMG_0736.JPG 1967: Dronningborg DB 2500 combine harvester 21-08-2020 20:00:00
IMG_9062.JPG 1127: Samson slurry mixer 21-08-2020 13:00:00
IMG_8180.JPG 2102: Valtra T190 tractor with reversible seat. 21-08-2020 10:06:01
IMG_3987.JPG 1465: Maschio SC Cobra 300 cutter 20-08-2020 20:00:00
IMG_3905.JPG 1461: Dalbo Heavy Cult 400 Subsoiler 20-08-2020 14:00:00
IMG_4595.JPG 1492: Sanderson GX 525 telehandler 20-08-2020 14:00:00
IMG_5889.JPG 2015: Massey Ferguson 190 LB baler 20-08-2020 14:00:00
palms.jpg 1125: Palms 140 construction vehicle. 19-08-2020 14:00:00
IMG_0127.JPG 1962: Fendt V 270 4 WD tractor 18-08-2020 20:04:37
IMG_9248.JPG 1943: Mower McConnel P A 180 E 18-08-2020 20:00:00
IMG_9834.JPG 1954: Kuhn 4 M rotary harrow, Seeder 18-08-2020 20:00:00
IMG_9906.JPG 1956: Kverneland EG 100 6 furrow Plow 18-08-2020 20:00:00
IMG_0200.JPG 1963: Fiat 50 - 86S City tractor. 18-08-2020 20:00:00
IMG_1268.JPG 1975: Præstbro Hankmo 500 harrow 18-08-2020 20:00:00
IMG_1176.JPG 1974: O&K L9 wheel loader 18-08-2020 20:00:00
IMG_2952.JPG LP1340: HOEGILD Feeder 2/28 Feeder wagon 18-08-2020 14:00:00
DSC02656.JPG 1581: Roug 970 liter fuel container. 17-08-2020 20:00:00
DSC02671.JPG 1579: Ehes Fuel tank in container. 17-08-2020 20:00:00
IMG_3051.JPG 1356: Iveco Daily C65 truck with crane 14-08-2020 20:00:00
IMG_7975.JPG 2100: Same Explorer-ll 90 turbo tractor 14-08-2020 10:00:00
IMG_8540.JPG 1116: Grimme SE 150-60 UB Potato harvester 14-08-2020 10:00:00
IMG_9010.JPG 1126: John Deere 575 baler 14-08-2020 10:00:00
IMG_6525.JPEG 2586: Joskin 22-45 / 50TP 12-08-2020 12:01:00
IMG_4377.JPEG 2861: Kuhn GF5202 tedder 12-08-2020 11:39:56
IMG_6325.JPEG 2578: Hitachi Zaxis 160 LC 12-08-2020 11:23:00
IMG_3551.jpg 2503: Kverneland stone collector modified for collecting roots 12-08-2020 10:20:00
IMG_6329.JPG 2034: Belos Trans Pro 4560 implement carrier with GMR TH 2500 B mower 11-08-2020 14:04:00
IMG_0906.JPG L1657: Bargam 5200 Compact 36 meter boom 11-08-2020 14:00:00
IMG_7172.JPG 2068: VPM 3400 Tool carrier in only 185 operating hours. 10-08-2020 14:00:00
IMG_8695.JPG 2109: 2 pcs. ECC Electric Construction generator 10-08-2020 14:00:00
IMG_6915.JPG 1858: Man Truck with Crane, wire lift and box 06-08-2020 20:00:00
IMG_8483.JPG 2101: New Holland T7.170 tractor with front loader 06-08-2020 14:11:00
DSC03862.JPG 1642: Väderstad Rapid 400C Super XL 05-08-2020 16:06:07
DSC03879.JPG 1641: Väderstad Rapid 400 S seed drill. 05-08-2020 15:56:00
DSC03829.JPG 1635: Kuhn Vari Master 153 5-furrow reversible plow. 05-08-2020 15:14:00
DSC03787.JPG 1637: Hardi Commander 2800 spray unit. 05-08-2020 14:49:00
DSC03766.JPG 1638: Hardi Commander 6600 spray unit 05-08-2020 14:36:00
DSC03964.JPG 1647: Stamford 50 kVA emergency power system. 05-08-2020 14:09:00
DSC03475.JPG 2907: Kuhn HR 6003 CSR seed drill set. 05-08-2020 12:16:00
DSC03462.JPG 2906: Väderstad 23 towed harrow. 05-08-2020 11:51:00
DSC03726.JPG 1633: Åkerman H16D crawler excavator with equipment. 05-08-2020 11:48:00
DSC03448.JPG 2904: Kverneland PB100 6 furrowed towed plow. 05-08-2020 11:44:32
DSC03527.JPG 1628: MF 3070 4 WD with front loader. 05-08-2020 11:28:00
DSC03616.JPG 1632: John Deere 3350 4WD tractor. 05-08-2020 11:27:11
DSC03430.JPG 2903: Monosem 15 rk single-grain precision seed drill. 05-08-2020 11:20:00
DSC03580.JPG 1626: Metsjø 3-axle 20 ton hooklift trailer. 05-08-2020 11:16:00
DSC03412.JPG 2901: IH 644 2 WD tractor. 05-08-2020 11:02:00
DSC03383.JPG 2902: Fiat City tractor with implement set. 05-08-2020 10:43:00
IMG_0544.JPG 1276: AGRICOLA 2 Row precision seed drill for vegetables 04-08-2020 20:00:00
IMG_5365.JPEG 2884: Horsch Terrano 6 FX 04-08-2020 14:04:39
IMG_8369.JPG 2107: Holsø manure spreader with RKM spreader 04-08-2020 14:00:00
IMG_0572.JPG 1966A : Walker D 21 D lawn mower 03-08-2020 17:04:47
IMG_2113.JPG 1280: McConnel Robocut 1300 Remote controlled mower 31-07-2020 14:10:35
IMG_9570.JPG 1948: Volvo A 20 C Dumper 30-07-2020 20:09:40
IMG_9653.JPG 1949: Semitrailer Kelberg 3 axle T 40-3 30-07-2020 20:03:12
IMG_0065.JPG 1961: UTV Winway 1.0 Diesel 4WD 30-07-2020 20:00:00
IMG_3379.JPG 1439: Ford B-Max 1.6 TDCI Van 30-07-2020 14:00:00
IMG_3346.JPG 1438: Citroen C3 1,6 Hdi Picasso Van 30-07-2020 14:00:00
IMG_6082.JPEG 2575: Ortolan mulcher 29-07-2020 12:52:00
IMG_3464.jpg 2500: Case IH 465 baler 29-07-2020 11:53:29
IMG_7781.JPG 2096: Owatonna 286 Draper Header. 27-07-2020 14:00:00
IMG_9304.JPG 1944: Scania with Crane and Nopa Trailer 24-07-2020 20:00:00
IMG_7869.JPG 1893: Iseki SFH 240 4WD mower 23-07-2020 20:00:00
IMG_8486.JPG 1905: JF-Stoll GMS 3600 Flex disc mower 23-07-2020 20:00:00
IMG_8610.JPG 1921: Cross Free Fall Post Driver 23-07-2020 20:00:00
IMG_9152.JPG 1940: 30 Feet Header inclusive trolly 23-07-2020 20:00:00
IMG_9458.JPG 1946: Mini loader ZL o8 F 23-07-2020 20:00:00
IMG_9123.JPG 1939: 30 feet Header and trolley 23-07-2020 17:04:51
IMG_9199.JPG 1939: Header 30 Foot Canola -John Deere 23-07-2020 17:04:11
IMG_7522.jpg 2877: New Holland TX 68 Plus Combine Harvesters 23-07-2020 14:35:29
IMG_3812.JPG 1457: Orsi River 651 LX grass and fence mowers 23-07-2020 14:04:43
DSC03334.JPG 2897: Kverneland 2200 potato / onion picker. 21-07-2020 17:39:22
DSC03318.JPG 2896: Pöttinger 651 A Multitast 21-07-2020 17:23:00
DSC03279.JPG 2892: Steketee FS 600 weeder. 21-07-2020 15:33:00
DSC03267.JPG 2890: ASA onions and potato picker. 21-07-2020 15:24:00
DSC03253.JPG 2891: Amazon ZA-M Ultra 3000 fertilizer spreaders. 21-07-2020 15:18:00
DSC03169.JPG 1619: Kverneland 4000 MSC4 combination drill. 20-07-2020 14:05:23
fe1.jpg 2094: Fendt 1050 Traktor 19-07-2020 20:36:00
IMG_7814.JPG 2095: TOYOTA LANDCRUISER VX 200 4.5 VAN 16-07-2020 14:05:06
IMG_5261.JPEG 2828: Bigab 22-27 hook lift trailer 16-07-2020 12:00:28
IMG_4106.JPEG 2863: Fendt 824 Vario 16-07-2020 11:24:00
IMG_8963.JPG 1937: JCB 185 - 65 4 WD Tractor 15-07-2020 17:19:35
IMG_5744.JPG 2857: Zetor Major 80 tractor 14-07-2020 14:07:22
IMG_4335.JPEG 2865: Fiat Ducato 35L VAN 09-07-2020 13:44:00
IMG_7724.JPG 2091: Multione S525T Evolution loader 08-07-2020 14:22:09
IMG_7632.JPG 2521: Valmet 6400 front loader tractor. 08-07-2020 14:00:00
IMG_5195.JPEG 2838: Amazon ZA-TS 4200 Profis Hydro fertilizer spreader 08-07-2020 11:24:00
IMG_4474.JPG 1488: Agrometer Slurry separator 07-07-2020 20:00:00
IMG_0250.JPG 1631: Trelleborg Twin 414 complete wheel set 07-07-2020 14:00:00
DSC02945.JPG 1595: Spearhead Twiga 6000T Flex mower. 06-07-2020 11:37:41
DSC02748.JPG 1585: 20 tons of BWP Bogie. 04-07-2020 20:00:00
DSC00672.JPG LP12972: Oletto asphalt container AF75 01-07-2020 20:00:00
IMG_7309.JPG 2027: Ford 8210 Tractor. 01-07-2020 14:03:21
DSC02670.JPG 1580: Ehes Fuel tank in container. 30-06-2020 20:00:00
IMG_6950.JPG 2059: Mercedes-Benz 906 truck 30-06-2020 14:12:23
IMG_2209.JPG 1357: Spearhead Trident 18 Park Flail mower 26-06-2020 10:00:00

Support

support@kapow.eu


Monday - thursday kl. 9-15
Friday kl. 9-14



Security from desire to handshake
  • Buyers ABC
  • Sellers ABC
  • Terms of trade buyer
  • Terms of trade seller
  • Kontakt

    +45 70707480

    Ydinggade 39B
    8752 Østbirk

    CVR 37526215
    @ KAPOW A/S - All rights reserved - Webdesign af Peoplez